Location: Date Creek
(34.2167°N, 113.0301°W)
Time: 20:14:57
(UTC-07:00)

OTV 5 (USA 277) - Visible Passes

Search period start: 19 July 2018 00:00
Search period end: 29 July 2018 00:00
Orbit: 312 x 321 km, 54.5° (Epoch: 05 July)

Date Brightness Start Highest point End Pass type
(mag) Time Alt. Az. Time Alt. Az. Time Alt. Az.
24 Jul ? 05:00:15 10° SE 05:00:34 10° ESE 05:00:52 10° ESE visible
27 Jul ? 04:08:47 16° SSE 04:09:31 18° SE 04:11:27 10° E visible
28 Jul ? 04:23:00 38° SSW 04:23:49 67° SE 04:26:30 10° NE visible
